TimeEDT,TemperatureF,Dew PointF,Humidity,Sea Level PressureIn,VisibilityMPH,Wind Direction,Wind SpeedMPH,Gust SpeedMPH,PrecipitationIn,Events,Conditions,WindDirDegrees,DateUTC
12:56 AM,70.0,66.9,90,30.03,10.0,Calm,Calm,-,N/A,,Clear,0,2012-10-06 04:56:00
1:56 AM,71.1,66.9,87,30.02,10.0,Calm,Calm,-,N/A,,Clear,0,2012-10-06 05:56:00
2:56 AM,70.0,68.0,93,30.01,7.0,Calm,Calm,-,N/A,,Clear,0,2012-10-06 06:56:00
3:56 AM,70.0,68.0,93,30.00,8.0,Calm,Calm,-,N/A,,Overcast,0,2012-10-06 07:56:00
4:56 AM,71.1,69.1,93,29.99,7.0,Calm,Calm,-,N/A,,Overcast,0,2012-10-06 08:56:00
5:56 AM,71.1,68.0,90,29.99,7.0,Calm,Calm,-,N/A,,Mostly Cloudy,0,2012-10-06 09:56:00
6:18 AM,69.8,68.0,94,29.98,1.2,NNE,3.5,-,N/A,,Mostly Cloudy,20,2012-10-06 10:18:00
6:20 AM,69.8,66.2,88,29.98,0.8,NNE,3.5,-,N/A,,Mostly Cloudy,20,2012-10-06 10:20:00
6:25 AM,68.0,66.2,94,29.98,0.2,Calm,Calm,-,N/A,Fog,Fog,0,2012-10-06 10:25:00
6:37 AM,68.0,66.2,94,29.98,0.5,Calm,Calm,-,N/A,Fog,Fog,0,2012-10-06 10:37:00
6:44 AM,68.0,66.2,94,29.98,0.8,Calm,Calm,-,N/A,,Mist,0,2012-10-06 10:44:00
6:48 AM,69.8,66.2,88,29.99,1.2,Calm,Calm,-,N/A,,Partly Cloudy,0,2012-10-06 10:48:00
6:51 AM,69.8,68.0,94,29.99,4.0,Calm,Calm,-,N/A,,Clear,0,2012-10-06 10:51:00
6:56 AM,69.1,66.9,93,29.99,6.0,Calm,Calm,-,N/A,,Partly Cloudy,0,2012-10-06 10:56:00
7:17 AM,68.0,66.2,94,29.99,1.8,Calm,Calm,-,N/A,,Scattered Clouds,0,2012-10-06 11:17:00
7:26 AM,68.0,66.2,94,29.99,3.0,NNE,3.5,-,N/A,,Scattered Clouds,30,2012-10-06 11:26:00
7:56 AM,69.1,68.0,96,30.00,6.0,Calm,Calm,-,N/A,,Mostly Cloudy,0,2012-10-06 11:56:00
8:56 AM,72.0,69.1,91,30.02,8.0,Calm,Calm,-,N/A,,Overcast,0,2012-10-06 12:56:00
9:56 AM,73.9,70.0,87,30.01,8.0,Calm,Calm,-,0.00,,Overcast,0,2012-10-06 13:56:00
10:56 AM,77.0,71.1,82,30.02,10.0,NNW,4.6,-,N/A,,Overcast,340,2012-10-06 14:56:00
11:37 AM,77.0,71.6,83,30.01,10.0,Calm,Calm,-,N/A,,Mostly Cloudy,0,2012-10-06 15:37:00
11:56 AM,79.0,71.1,77,30.00,10.0,Calm,Calm,-,N/A,,Partly Cloudy,0,2012-10-06 15:56:00
12:56 PM,81.0,69.1,67,29.98,10.0,Calm,Calm,-,N/A,,Scattered Clouds,0,2012-10-06 16:56:00
1:56 PM,82.0,68.0,62,29.95,10.0,NNW,4.6,-,N/A,,Scattered Clouds,340,2012-10-06 17:56:00
2:56 PM,82.9,70.0,65,29.93,10.0,SE,3.5,-,N/A,,Mostly Cloudy,140,2012-10-06 18:56:00
3:56 PM,84.0,70.0,63,29.92,10.0,South,3.5,-,N/A,,Mostly Cloudy,180,2012-10-06 19:56:00
4:56 PM,80.1,73.0,79,29.90,10.0,South,3.5,-,0.00,,Mostly Cloudy,190,2012-10-06 20:56:00
5:56 PM,82.0,70.0,67,29.91,10.0,South,4.6,-,N/A,,Clear,180,2012-10-06 21:56:00
6:56 PM,78.1,70.0,76,29.92,10.0,South,3.5,-,N/A,,Clear,190,2012-10-06 22:56:00
7:56 PM,77.0,70.0,79,29.94,10.0,SSW,4.6,-,N/A,,Clear,200,2012-10-06 23:56:00
8:56 PM,75.9,71.1,85,29.95,10.0,SSW,3.5,-,N/A,,Clear,210,2012-10-07 00:56:00
9:56 PM,75.9,71.1,85,29.96,10.0,SSW,3.5,-,N/A,,Scattered Clouds,200,2012-10-07 01:56:00
10:56 PM,75.0,71.1,87,29.97,10.0,Calm,Calm,-,N/A,,Clear,0,2012-10-07 02:56:00
11:56 PM,73.0,70.0,90,29.96,8.0,WSW,3.5,-,N/A,,Clear,240,2012-10-07 03:56:00